Date String (YYYY-MM-DD hh:mm:ss) UTC,Instrument flags,Ambient pressure (hPa),Sample flow (lpm),Bypass flow (lpm),Sample temperature (°C),Ambient temperature (°C),ASC tube jacket temperature (°C),LED temperature (°C),Box temperature (°C),Sample RH (%),Span deviation,Mass concentration (μg/m³),Mass concentration (μg/m³),Mass concentration (μg/m³)
DateTimeUTC,F1_M11,P_M11,Q1_M11,Q2_M11,T1_M11,T2_M11,T3_M11,T4_M11,T5_M11,U1_M11,ZSPAN_M11,X0_M11,X2_M11,X1_M11
2022-11-12 04:00:00,,0827.4,4.99,0.00,22.3,20.7,00.0,31.2,24.1,10.2,-000.7,0019.64,0009.27,0008.14
2022-11-12 04:01:00,,0827.4,5.00,0.00,22.3,21.0,00.0,31.2,24.2,10.2,-000.6,0019.82,0009.30,0008.14
2022-11-12 04:02:00,,0827.5,5.01,0.00,22.4,22.0,00.0,31.2,24.4,10.1,-000.8,0020.41,0009.32,0008.14
2022-11-12 04:03:00,,0827.5,4.99,0.00,22.5,22.3,00.0,31.2,24.5,10.1,-000.8,0021.40,0009.32,0008.14
2022-11-12 04:04:00,,0827.4,5.00,0.00,22.5,22.0,00.0,31.2,24.5,10.1,-000.8,0020.28,0009.26,0008.13
2022-11-12 04:05:00,,0827.4,4.99,0.00,22.5,21.8,00.0,31.2,24.4,10.1,-000.6,0019.47,0009.29,0008.14
2022-11-12 04:06:00,,0827.4,5.00,0.00,22.5,21.6,00.0,31.3,24.4,10.1,-000.5,0018.68,0009.26,0008.14
2022-11-12 04:07:00,,0827.4,5.00,0.00,22.5,21.4,00.0,31.3,24.3,10.1,-000.6,0018.52,0009.26,0008.15
2022-11-12 04:08:00,,0827.4,5.00,0.00,22.5,21.3,00.0,31.3,24.3,10.1,-000.5,0018.09,0009.25,0008.16
2022-11-12 04:09:00,,0827.4,5.00,0.00,22.5,21.1,00.0,31.3,24.3,10.1,0000.1,0018.11,0009.20,0008.16
2022-11-12 04:10:00,,0827.4,4.99,0.00,22.4,21.1,00.0,31.3,24.3,10.1,0000.1,0018.52,0009.20,0008.17
2022-11-12 04:11:00,,0827.4,4.99,0.00,22.4,21.0,00.0,31.3,24.2,10.1,0000.8,0019.03,0009.21,0008.18
2022-11-12 04:12:00,,0827.4,5.00,0.00,22.4,20.9,00.0,31.3,24.2,10.1,0001.5,0020.18,0009.19,0008.17
2022-11-12 04:13:00,,0827.4,5.00,0.00,22.4,20.9,00.0,31.3,24.2,10.1,0001.8,0019.98,0009.22,0008.18
2022-11-12 04:14:00,,0827.4,5.00,0.00,22.4,20.8,00.0,31.3,24.1,10.1,0002.1,0017.98,0009.23,0008.19
2022-11-12 04:15:00,,0827.5,5.01,0.00,22.3,20.8,00.0,31.2,24.1,10.1,0002.2,0017.73,0009.25,0008.21
2022-11-12 04:16:00,,0827.5,5.01,0.00,22.3,20.7,00.0,31.2,24.1,10.1,0002.2,0017.44,0009.24,0008.23
2022-11-12 04:17:00,,0827.5,5.00,0.00,22.3,20.7,00.0,31.2,24.1,10.2,0002.0,0017.94,0009.24,0008.26
2022-11-12 04:18:00,,0827.6,5.00,0.00,22.3,20.7,00.0,31.2,24.1,10.2,0002.0,0018.56,0009.28,0008.28
2022-11-12 04:19:00,,0827.5,4.98,0.00,22.3,21.4,00.0,31.2,24.2,10.1,0002.2,0019.34,0009.33,0008.28
2022-11-12 04:20:00,,0827.5,5.01,0.00,22.4,22.2,00.0,31.1,24.4,10.1,0002.4,0019.33,0009.32,0008.30
2022-11-12 04:21:00,,0827.5,5.00,0.00,22.5,22.1,00.0,31.2,24.5,10.1,0002.5,0019.36,0009.33,0008.31
2022-11-12 04:22:00,,0827.4,5.00,0.00,22.5,21.8,00.0,31.2,24.4,10.1,0001.9,0018.93,0009.33,0008.31
2022-11-12 04:23:00,,0827.5,5.01,0.00,22.5,21.5,00.0,31.2,24.3,10.1,0000.9,0018.09,0009.33,0008.32
2022-11-12 04:24:00,,0827.5,5.01,0.00,22.4,21.3,00.0,31.2,24.3,10.1,0000.4,0018.27,0009.27,0008.30
2022-11-12 04:25:00,,0827.5,5.01,0.00,22.4,21.2,00.0,31.2,24.3,10.1,0000.2,0019.24,0009.28,0008.30
2022-11-12 04:26:00,,0827.5,4.99,0.00,22.4,21.1,00.0,31.2,24.2,10.1,-000.1,0019.99,0009.31,0008.30
2022-11-12 04:27:00,,0827.5,5.00,0.00,22.4,21.0,00.0,31.2,24.2,10.1,-000.3,0019.86,0009.26,0008.29
2022-11-12 04:28:00,,0827.4,5.00,0.00,22.4,20.9,00.0,31.2,24.2,10.1,-000.8,0019.80,0009.27,0008.27
2022-11-12 04:29:00,,0827.4,5.00,0.00,22.3,20.8,00.0,31.2,24.1,10.1,-001.0,0019.57,0009.26,0008.26
2022-11-12 04:30:00,,0827.4,5.00,0.00,22.3,20.8,00.0,31.2,24.1,10.1,-001.6,0020.21,0009.25,0008.26
2022-11-12 04:31:00,,0827.4,5.00,0.00,22.3,20.8,00.0,31.2,24.1,10.1,-002.0,0020.43,0009.26,0008.24
2022-11-12 04:32:00,,0827.4,5.01,0.00,22.3,20.7,00.0,31.2,24.0,10.1,-001.6,0020.20,0009.29,0008.26
2022-11-12 04:33:00,,0827.4,5.00,0.00,22.3,20.7,00.0,31.2,24.0,10.1,-001.4,0020.85,0009.27,0008.27
2022-11-12 04:34:00,,0827.4,5.00,0.00,22.2,20.7,00.0,31.2,24.0,10.1,-001.5,0021.63,0009.27,0008.28
2022-11-12 04:35:00,,0827.4,5.00,0.00,22.3,21.4,00.0,31.1,24.2,10.1,-001.0,0021.71,0009.31,0008.29
2022-11-12 04:36:00,,0827.5,5.00,0.00,22.4,22.2,00.0,31.1,24.4,10.1,-000.8,0020.75,0009.33,0008.27
2022-11-12 04:37:00,,0827.4,4.99,0.00,22.4,22.1,00.0,31.2,24.4,10.0,-000.5,0020.37,0009.33,0008.27
2022-11-12 04:38:00,,0827.5,5.00,0.00,22.4,21.8,00.0,31.2,24.4,10.0,-000.1,0021.27,0009.34,0008.26
2022-11-12 04:39:00,,0827.5,5.00,0.00,22.4,21.5,00.0,31.2,24.3,10.1,0000.5,0021.40,0009.33,0008.25
2022-11-12 04:40:00,,0827.5,4.99,0.00,22.4,21.3,00.0,31.2,24.3,10.1,0001.0,0020.94,0009.28,0008.23
2022-11-12 04:41:00,,0827.6,5.00,0.00,22.4,21.2,00.0,31.2,24.2,10.1,0001.1,0019.74,0009.24,0008.23
2022-11-12 04:42:00,,0827.6,5.01,0.00,22.4,21.0,00.0,31.2,24.2,10.1,0001.7,0019.75,0009.22,0008.22
2022-11-12 04:43:00,,0827.5,5.00,0.00,22.3,20.9,00.0,31.2,24.1,10.1,0001.6,0019.52,0009.17,0008.18
2022-11-12 04:44:00,,0827.5,4.99,0.00,22.3,20.9,00.0,31.2,24.1,10.0,0001.0,0018.81,0009.14,0008.15
2022-11-12 04:45:00,,0827.5,5.00,0.00,22.3,20.8,00.0,31.2,24.0,10.0,0000.9,0017.76,0009.14,0008.13
2022-11-12 04:46:00,,0827.5,5.00,0.00,22.3,20.8,00.0,31.2,24.0,10.1,0000.8,0017.06,0009.07,0008.10
2022-11-12 04:47:00,,0827.5,5.00,0.00,22.3,20.7,00.0,31.2,24.0,10.1,0000.9,0017.05,0009.02,0008.08
2022-11-12 04:48:00,,0827.5,4.99,0.00,22.2,20.7,00.0,31.2,24.0,10.1,0000.6,0016.95,0009.02,0008.07
2022-11-12 04:49:00,,0827.5,5.00,0.00,22.2,20.7,00.0,31.2,24.0,10.1,0000.4,0016.22,0009.04,0008.06
2022-11-12 04:50:00,,0827.7,5.00,0.00,22.3,21.4,00.0,31.1,24.2,10.1,0000.0,0016.28,0009.01,0008.03
2022-11-12 04:51:00,,0827.6,5.01,0.00,22.4,22.2,00.0,31.1,24.4,10.1,0000.1,0016.44,0008.98,0008.03
2022-11-12 04:52:00,,0827.6,4.99,0.00,22.4,22.1,00.0,31.2,24.4,10.0,0000.6,0016.58,0008.97,0008.00
2022-11-12 04:53:00,,0827.6,5.01,0.00,22.4,21.8,00.0,31.2,24.4,10.0,0000.1,0016.30,0008.96,0007.98
2022-11-12 04:54:00,,0827.6,4.98,0.00,22.4,21.6,00.0,31.2,24.3,10.0,0000.1,0016.55,0008.95,0007.98
2022-11-12 04:55:00,,0827.5,5.00,0.00,22.4,21.4,00.0,31.2,24.2,10.0,0000.5,0016.93,0008.94,0007.98
2022-11-12 04:56:00,,0827.6,5.01,0.00,22.4,21.2,00.0,31.2,24.2,10.0,0001.2,0016.89,0008.90,0007.95
2022-11-12 04:57:00,,0827.6,5.01,0.00,22.3,21.0,00.0,31.2,24.1,10.0,0001.4,0016.63,0008.90,0007.96
2022-11-12 04:58:00,,0827.6,4.99,0.00,22.3,20.9,00.0,31.2,24.1,10.1,0000.9,0016.33,0008.85,0007.96
2022-11-12 04:59:00,,0827.6,4.99,0.00,22.3,20.8,00.0,31.2,24.1,10.1,0001.1,0015.93,0008.80,0007.94
